Location: ??? ???
(33.4974°N, 35.4618°E)
Time: 17:36:29
(UTC+00:00)

Meteor 2-1 Rocket - Pass Details

Date: 29 October 2020
Orbit: 830 x 906 km, 81.3° (Epoch: 29 November)

Event Time Altitude Azimuth Distance (km) Brightness Sun altitude
Rises 15:33:40 0° 171° (S) 3,369 7.4 -10.0°
Reaches altitude 10° 15:36:09 10° 166° (SSE) 2,433 6.6 -10.5°
Maximum altitude 15:41:24 47° 93° (E) 1,083 4.4 -11.5°
Drops below altitude 10° 15:46:39 10° 21° (NNE) 2,443 6.3 -12.6°
Sets 15:49:08 0° 16° (NNE) 3,384 7.1 -13.1°
